Regional Weather Roundup
Issued by NWS San Diego, CA

Home | Current Version | Previous Version | Text Only | Print | Product List | Glossary On
Versions: 1 2 3 4 5 6 7 8 9 10 11 12 13 14 15 16 17 18 19 20 21 22 23 24 25 26 27 28 29 30 31 32 33 34 35 36 37 38 39 40 41 42 43 44 45 46 47 48 49 50
000
ASUS46 KSGX 291811
RWRSGX

SAN DIEGO HOURLY WEATHER ROUNDUP
NATIONAL WEATHER SERVICE SAN DIEGO CA
1100 AM PDT MON AUG 29 2016

NOTE: "FAIR" INDICATES FEW OR NO CLOUDS BELOW 12,000 FEET WITH NO
SIGNIFICANT WEATHER AND/OR OBSTRUCTIONS TO VISIBILITY.

CAZ042-043-060-061-PZZ750-775-291900-

GREATER SAN DIEGO AREA

CITY           SKY/WX    TMP DP  RH WIND       PRES   REMARKS
LINDBERGH FLD  MOSUNNY   75  64  68 W9        29.97F
POINT LOMA       N/A     73  64  72 W13         N/A
NATIONAL CITY    N/A     74  67  78 SW3       29.97F
CHULA VISTA      N/A     76  68  78 W8        29.88F
IMPERIAL BEACH MOSUNNY   74  63  68 W13       29.97S
BROWN FIELD    SUNNY     77  64  64 NW6       29.96F
MIRAMAR MCAS   SUNNY     82  63  52 NW6       29.96F
MONTGOMERY FLD SUNNY     80  62  54 N5        29.96F

$$

NORTH SAN DIEGO COUNTY

CITY           SKY/WX    TMP DP  RH WIND       PRES   REMARKS
CAMP PENDLETON MOSUNNY   72  66  81 SW8       29.95F
OCEANSIDE AP   MOSUNNY   72  63  73 W9        29.95F
OCEANSIDE HBR    N/A     67  65  93 W3        30.00S
VISTA            N/A     74  67  77 SW2       29.94F
CARLSBAD       MOSUNNY   70  65  84 SW8       29.96S
DEL MAR          N/A     71  67  86 NW2       29.99S
LA JOLLA SCRIP   N/A     68  66  92 W7        29.96F
FALLBROOK        N/A     77  69  77 S2        29.95F
ESCONDIDO        N/A     82  67  60 W3        29.96F
SAN MARCOS       N/A     78  66  66 NW5       29.99F
POWAY            N/A     82  67  59 CALM      29.95F

$$

EAST SAN DIEGO COUNTY

CITY           SKY/WX    TMP DP  RH WIND       PRES   REMARKS
RAMONA         SUNNY     86  60  41 NW12      29.97F
SANTEE LAKES     N/A     83  68  61 S3        29.93F
LA MESA          N/A     77  65  65 W3        29.88F
JAMUL            N/A     83  67  58 CALM      29.94F
DESCANSO N       N/A     91  47  21 NE10      29.86F
MT. LAGUNA OBS   N/A     76  39  26 E6        29.83S
CAMPO            N/A     95  43  16 E14G20    30.00F

$$

ORANGE COUNTY AND THE LOS ANGELES BASIN

CITY           SKY/WX    TMP DP  RH WIND       PRES   REMARKS
JOHN WAYNE AP  SUNNY     77  63  61 SW5       29.96F
LAGUNA BEACH     N/A     74  67  79 S2        29.92F
LAKE FOREST FR   N/A     80  61  52 CALM      29.86S
HUNTINGTON BCH   N/A     75  68  79 SW3       29.98F
LOS ALAMITOS   SUNNY     78  64  61 VRB5      29.96F
FULLERTON      SUNNY     79  61  53 VRB3      29.95F
LONG BEACH     SUNNY     77  63  61 SW5       29.96F
L.A. AP        SUNNY     76  63  64 W8        29.96F
L.A. DOWNTOWN  SUNNY     81  63  54 CALM      29.95F

$$

THE INLAND EMPIRE

CITY           SKY/WX    TMP DP  RH WIND       PRES   REMARKS
CORONA         SUNNY     83  60  45 W3        29.96F
CHINO          SUNNY     85  56  37 VRB3      29.97F
ONTARIO        SUNNY     85  54  34 SW5       29.97F
SAN BERNARDINO SUNNY     90  48  24 SW6       29.98F
RIVERSIDE AP   SUNNY     85  54  34 W6        29.96F
MORENO VALLEY    N/A     91  55  29 CALM      28.12S
MARCH ARB      SUNNY     91  48  22 N6        29.98F
PERRIS           N/A     90  52  27 SW1       29.98F
HEMET EAST       N/A     88  43  20 CALM      29.81F
FRENCH VALLEY  FAIR      90  55  31 S5        29.98F
TEMECULA         N/A     85  60  42 CALM      30.02F

$$

SAN BERNARDINO AND RIVERSIDE COUNTY MOUNTAINS

CITY           SKY/WX    TMP DP  RH WIND       PRES   REMARKS
BIG BEAR AP    SUNNY     73  30  20 N7G16     30.38S
ANGELUS OAKS     N/A     80  42  26 CALM      29.86F
PINE COVE        N/A     82  37  20 SE3       29.95F

$$

SOUTHERN DESERT INCLUDING THE COACHELLA VALLEY

CITY           SKY/WX    TMP DP  RH WIND       PRES   REMARKS
PALM SPRINGS   SUNNY    104  44  13 VRB3      29.90F HX  99
THOUSAND PALMS   N/A    104  45  13 W2        29.85F HX  99
PALM DESERT      N/A    105  52  17 CALM      29.43S HX 102
THERMAL        SUNNY    104  42  12 VRB3      29.83F HX  99
BLYTHE         SUNNY    100  49  17 E7        29.90S HX  97
IMPERIAL AP    SUNNY    103  52  18 NW6       29.85S HX 100
EL CENTRO NAS  MOSUNNY  105  42  11 N6        29.86F HX 100
YUMA AZ        SUNNY    102  47  15 NE7       29.86F HX  98
MEXICALI       SUNNY    100  46  16 CALM      29.87S HX  96

$$

UPPER DESERT

CITY           SKY/WX    TMP DP  RH WIND       PRES   REMARKS
VICTORVILLE AP SUNNY     90  36  14 CALM      30.10S
HESPERIA         N/A     90  41  18 E2        30.05S
PALMDALE       SUNNY     91  35  13 VRB5      30.08F
LANCASTER      SUNNY     93  37  14 VRB3      30.06F
EDWARDS AFB    SUNNY     86  40  20 NE3       30.05S
DAGGETT        SUNNY     93  40  15 NW14      30.03S
29 PALMS N     SUNNY     95  32  11 VRB3      30.09F
NEEDLES        SUNNY     99  50  19 MISG      29.95S HX  96

$$

REGIONAL REPORTS

CITY           SKY/WX    TMP DP  RH WIND       PRES   REMARKS
SANTA BARBARA  SUNNY     70  62  76 SW6       29.98R
SANDBERG       SUNNY     92  25   9 N12G22    30.23S
LAS VEGAS NV   MOSUNNY   94  42  16 NW6       30.03F
PHOENIX AZ     MOSUNNY   96  46  18 CALM      29.91F
TIJUANA        SUNNY     79  61  53 SW5       29.98F
ENSENADA NW      N/A     69  32  25 W10       29.93F

$$

OFFSHORE ISLANDS

CITY           SKY/WX    TMP DP  RH WIND       PRES   REMARKS
CATALINA ARPT  SUNNY     80  61  52 W6        30.02S
SAN CLEMENTE I CLOUDY    69  62  78 W15       30.00S
SAN NICOLAS IS PTSUNNY   63  55  75 NW23      30.00S HAZE

$$

MARINE AND OFFSHORE BUOY REPORTS

STATION/POSITION SKY/WX   TEMP    WIND        PRES    SWELL
                          AIR SEA DIR/SP/G            HT/PER/DIR
                          (F)     (DEG/KT/KT) (MB)    (FT/S/D)
TANNER BANKS               62 64  310/ 19/ 25 1015.7F   2/250/16
S CLEMENTE BASIN           67 70  290/ 14/ 16 1014.8F   3/290/ 7
SAN NICOLAS IS.               63                N/A     2/200/17
SO. S. ROSA ISLA           59 62  310/ 21/ 25 1015.9F   3/200/12
W. S. BARBARA CH           59 58  320/ 25/ 31 1015.4F   2/300/ 9
M. S. BARBARA CH                  250/  4/  6 1015.5S
S. MONICA BASIN            66 69  340/  6/  8 1014.9F
S PEDRO CHANNEL               72                N/A     2/160/17
OCEANSIDE OFFSHR              69                N/A     2/200/15
TORREY PINES OTR              70                N/A     2/200/15
POINT LOMA SOUTH              71                N/A     2/190/17

$$




USA.gov is the U.S. government's official web portal to all federal, state and local government web resources and services.